FW3334 Weather Reports


time (UTC)temp
C
wind
direction
speed
KPH
gust
KPH
rain 1hr
cm
rain 24hr
cm
rain mn
cm
humidity
%
barometer
mb
20260510190300 23 77 11.3 22.5 0.00 0.00 0.00 64 1006.3
20260510185759 23 59 9.7 19.3 0.00 0.00 0.00 66 1006.3
20260510185259 23 353 11.3 17.7 0.00 0.00 0.00 67 1006.2
20260510184800 23 40 11.3 19.3 0.00 0.00 0.00 67 1006.3
20260510184304 23 74 6.4 16.1 0.00 0.00 0.00 66 1006.3
20260510184259 23 30 9.7 19.3 0.00 0.00 0.00 67 1006.3
20260510183529 23 113 8.0 14.5 0.00 0.00 0.00 67 1006.3
20260510182751 23 129 8.0 16.1 0.00 0.00 0.00 66 1006.4
20260510182252 23 112 9.7 22.5 0.00 0.00 0.00 66 1006.4
20260510181752 23 118 11.3 22.5 0.00 0.00 0.00 68 1006.3
20260510181249 23 59 11.3 19.3 0.00 0.00 0.00 69 1006.2
20260510180750 23 94 9.7 19.3 0.00 0.00 0.00 70 1006.2
20260510180247 23 71 11.3 19.3 0.00 0.00 0.00 67 1006.1
20260510175747 23 125 11.3 19.3 0.00 0.00 0.00 69 1006.1
20260510175245 23 87 11.3 20.9 0.00 0.00 0.00 69 1006.0
20260510174745 23 86 11.3 22.5 0.00 0.00 0.00 69 1006.0
20260510174246 23 106 11.3 22.5 0.00 0.00 0.00 68 1005.9
20260510173743 23 47 12.9 19.3 0.00 0.00 0.00 67 1005.9
20260510173244 23 44 12.9 22.5 0.00 0.00 0.00 68 1005.9
20260510172743 23 51 11.3 22.5 0.00 0.00 0.00 70 1005.8
20260510172244 23 56 11.3 17.7 0.00 0.00 0.00 71 1005.8
20260510171744 23 77 9.7 17.7 0.00 0.00 0.00 70 1005.8
20260510171243 23 59 9.7 16.1 0.00 0.00 0.00 70 1005.8
20260510171013 23 48 11.3 19.3 0.00 0.00 0.00 70 1005.8
20260510170236 23 29 11.3 19.3 0.00 0.00 0.00 69 1005.9
20260510165729 23 72 9.7 20.9 0.00 0.00 0.00 69 1006.0
20260510165223 23 100 9.7 20.9 0.00 0.00 0.00 70 1006.0
20260510164717 23 110 9.7 24.1 0.00 0.00 0.00 71 1006.1
20260510164210 23 55 11.3 24.1 0.00 0.00 0.00 71 1006.1
20260510163705 22 51 11.3 19.3 0.00 0.00 0.00 70 1006.2
20260510163159 22 78 11.3 20.9 0.00 0.00 0.00 70 1006.1
20260510162653 22 108 9.7 20.9 0.00 0.00 0.00 71 1006.1
20260510162147 23 66 9.7 19.3 0.00 0.00 0.00 69 1006.2
20260510161641 23 69 9.7 17.7 0.00 0.00 0.00 69 1006.1
20260510161135 22 106 8.0 16.1 0.00 0.00 0.00 72 1006.1
20260510160628 22 54 8.0 16.1 0.00 0.00 0.00 71 1006.1
20260510160123 22 33 8.0 16.1 0.00 0.00 0.00 71 1006.1
20260510155617 22 81 6.4 12.9 0.00 0.00 0.00 73 1006.1
20260510155111 22 68 6.4 12.9 0.00 0.00 0.00 72 1006.1
20260510154605 22 82 6.4 14.5 0.00 0.00 0.00 73 1006.1
20260510154058 22 81 4.8 14.5 0.00 0.00 0.00 71 1005.9
20260510153553 22 67 6.4 11.3 0.00 0.00 0.00 71 1005.8
20260510153046 22 65 4.8 11.3 0.00 0.00 0.00 70 1005.8
20260510152540 21 32 3.2 12.9 0.00 0.00 0.00 71 1005.8
20260510152034 21 25 1.6 6.4 0.00 0.00 0.00 75 1005.8
20260510151529 21 105 1.6 4.8 0.00 0.00 0.00 74 1005.9
20260510151022 21 56 3.2 6.4 0.00 0.00 0.00 75 1005.8
20260510150516 21 46 1.6 6.4 0.00 0.00 0.00 75 1005.7
20260510150011 20 91 1.6 8.0 0.00 0.00 0.00 74 1005.7
20260510145736 20 100 3.2 8.0 0.00 0.00 0.00 74 1005.7
20260510144959 20 92 1.6 6.4 0.00 0.00 0.00 73 1005.7
20260510144453 21 26 1.6 4.8 0.00 0.00 0.00 72 1005.7
20260510143947 21 239 0.0 3.2 0.00 0.00 0.00 71 1005.6
20260510143441 20 239 0.0 4.8 0.00 0.00 0.00 72 1005.5
20260510142934 20 239 0.0 4.8 0.00 0.00 0.00 73 1005.3
20260510142428 20 245 0.0 3.2 0.00 0.00 0.00 73 1005.2
20260510141922 20 223 0.0 3.2 0.00 0.00 0.00 73 1005.1
20260510141418 20 98 0.0 1.6 0.00 0.00 0.00 74 1005.1
20260510140911 20 97 0.0 1.6 0.00 0.00 0.00 72 1005.1
20260510140405 19 97 0.0 1.6 0.00 0.00 0.00 72 1005.1
20260510135859 19 97 0.0 1.6 0.00 0.00 0.00 72 1005.0
20260510135353 19 97 0.0 1.6 0.00 0.00 0.00 73 1004.8
20260510135117 18 97 0.0 1.6 0.00 0.00 0.00 74 1004.8
20260510134344 18 97 0.0 1.6 0.00 0.00 0.00 74 1004.8
20260510134113 18 97 0.0 1.6 0.00 0.00 0.00 75 1004.7
20260510133612 17 97 0.0 1.6 0.00 0.00 0.00 76 1004.6
20260510132839 17 97 0.0 1.6 0.00 0.00 0.00 78 1004.6
20260510132339 17 97 0.0 3.2 0.00 0.00 0.00 77 1004.7
20260510131838 16 97 0.0 3.2 0.00 0.00 0.00 78 1004.7
20260510131336 16 97 0.0 3.2 0.00 0.00 0.00 79 1004.6
20260510130835 16 97 0.0 3.2 0.00 0.00 0.00 79 1004.5
20260510130335 16 97 0.0 0.0 0.00 0.00 0.00 79 1004.6
20260510125834 16 97 0.0 0.0 0.00 0.00 0.00 80 1004.5
20260510125333 15 97 0.0 0.0 0.00 0.00 0.00 80 1004.4
20260510124832 15 97 0.0 0.0 0.00 0.00 0.00 80 1004.5
20260510124331 15 97 0.0 0.0 0.00 0.00 0.00 80 1004.5
20260510123830 15 97 0.0 0.0 0.00 0.00 0.00 81 1004.6
20260510123331 15 97 0.0 0.0 0.00 0.00 0.00 82 1004.7
20260510122829 15 97 0.0 0.0 0.00 0.00 0.00 82 1004.7
20260510122328 15 97 0.0 1.6 0.00 0.00 0.00 82 1004.6
20260510121823 15 97 0.0 3.2 0.00 0.00 0.00 82 1004.6
20260510121320 15 97 0.0 3.2 0.00 0.00 0.00 81 1004.4
20260510120819 15 98 0.0 1.6 0.00 0.00 0.00 79 1004.3
20260510120319 16 99 0.0 1.6 0.00 0.00 0.00 79 1004.4
20260510115818 16 98 0.0 1.6 0.00 0.00 0.00 77 1004.3
20260510115319 16 98 0.0 0.0 0.00 0.00 0.00 78 1004.2
20260510114819 16 98 0.0 3.2 0.00 0.00 0.00 77 1004.1
20260510114319 16 98 0.0 3.2 0.00 0.00 0.00 75 1003.8
20260510113819 16 15 0.0 1.6 0.00 0.00 0.00 74 1003.9
20260510113318 16 15 0.0 1.6 0.00 0.00 0.00 74 1004.0
20260510112820 16 15 0.0 1.6 0.00 0.00 0.00 74 1004.0
20260510112816 16 15 1.6 4.8 0.00 0.00 0.00 74 1003.9
20260510111815 16 15 1.6 6.4 0.00 0.00 0.00 74 1003.9
20260510111314 16 12 1.6 6.4 0.00 0.00 0.00 74 1003.8
20260510110815 16 337 1.6 4.8 0.00 0.00 0.00 75 1003.8
20260510110314 16 23 3.2 8.0 0.00 0.00 0.00 75 1003.7
20260510105814 16 359 3.2 8.0 0.00 0.00 0.00 75 1003.6
20260510105314 16 341 1.6 6.4 0.00 0.00 0.00 76 1003.7
20260510104814 15 6 3.2 6.4 0.00 0.00 0.00 77 1003.5
20260510104315 15 28 1.6 4.8 0.00 0.00 0.00 78 1003.3
20260510103810 15 18 0.0 3.2 0.00 0.00 0.00 79 1003.2
20260510103310 15 35 0.0 1.6 0.00 0.00 0.00 80 1003.1
20260510102811 15 35 0.0 1.6 0.00 0.00 0.00 81 1003.1
20260510102542 14 35 1.6 3.2 0.00 0.00 0.00 83 1003.0
20260510101811 15 35 0.0 3.2 0.00 0.00 0.00 80 1003.0
20260510101312 15 35 0.0 3.2 0.00 0.00 0.00 78 1002.9
20260510100810 16 343 0.0 3.2 0.00 0.00 0.00 76 1002.6
20260510100541 16 308 0.0 1.6 0.00 0.00 0.00 75 1002.6
20260510095810 17 308 0.0 1.6 0.00 0.00 0.00 72 1002.6
20260510095311 17 308 0.0 1.6 0.00 0.00 0.00 71 1002.5
20260510094809 17 302 0.0 0.0 0.00 0.00 0.00 67 1002.5
20260510094304 17 302 0.0 1.6 0.00 0.00 0.00 67 1002.3
20260510093757 18 302 0.0 1.6 0.00 0.00 0.00 65 1002.3
20260510093523 18 302 0.0 3.2 0.00 0.00 0.00 64 1002.3
20260510092746 18 302 0.0 3.2 0.00 0.00 0.00 64 1002.4
20260510092240 18 291 0.0 4.8 0.00 0.00 0.00 63 1002.4
20260510091735 18 352 0.0 4.8 0.00 0.00 0.00 63 1002.3
20260510091227 18 272 1.6 8.0 0.00 0.00 0.00 63 1002.3
20260510090722 18 316 1.6 8.0 0.00 0.00 0.00 63 1002.2
20260510090215 18 319 1.6 4.8 0.00 0.00 0.00 63 1002.1
20260510085710 18 311 1.6 4.8 0.00 0.00 0.00 63 1002.1
20260510085203 18 297 1.6 4.8 0.00 0.00 0.00 63 1002.1
20260510084658 19 302 1.6 6.4 0.00 0.00 0.00 63 1002.0
20260510084152 18 338 1.6 6.4 0.00 0.00 0.00 63 1002.0
20260510083917 18 296 1.6 8.0 0.00 0.00 0.00 64 1001.9
20260510083411 18 305 0.0 8.0 0.00 0.00 0.00 65 1001.7
20260510082634 18 294 0.0 3.2 0.00 0.00 0.00 65 1001.7
20260510082128 18 301 0.0 3.2 0.00 0.00 0.00 65 1001.7
20260510081621 18 301 0.0 1.6 0.00 0.00 0.00 66 1001.5
20260510081116 18 301 0.0 3.2 0.00 0.00 0.00 66 1001.5
20260510080841 18 301 0.0 3.2 0.00 0.00 0.00 66 1001.4
20260510080104 18 305 0.0 4.8 0.00 0.00 0.00 66 1001.5
20260510075557 18 305 1.6 4.8 0.00 0.00 0.00 65 1001.5
20260510075052 18 311 1.6 4.8 0.00 0.00 0.00 65 1001.6
20260510074545 18 291 0.0 4.8 0.00 0.00 0.00 66 1001.6
20260510074039 18 302 0.0 4.8 0.00 0.00 0.00 65 1001.5
20260510073534 19 307 1.6 4.8 0.00 0.00 0.00 64 1001.5
20260510073028 18 303 0.0 4.8 0.00 0.00 0.00 65 1001.5
20260510072522 19 300 0.0 3.2 0.00 0.00 0.00 65 1001.6
20260510072015 19 300 0.0 3.2 0.00 0.00 0.00 64 1001.6
20260510071510 19 290 0.0 3.2 0.00 0.00 0.00 64 1001.6
20260510071004 19 302 0.0 8.0 0.00 0.00 0.00 64 1001.7
20260510070730 19 293 0.0 8.0 0.00 0.00 0.00 63 1001.7
20260510065952 19 323 1.6 6.4 0.00 0.00 0.00 63 1001.7
20260510065445 19 290 1.6 6.4 0.00 0.00 0.00 63 1001.7
20260510064940 19 327 1.6 6.4 0.00 0.00 0.00 63 1001.7
20260510064433 20 302 0.0 4.8 0.00 0.00 0.00 62 1001.7
20260510063928 20 289 0.0 4.8 0.00 0.00 0.00 62 1001.8
20260510063924 20 289 1.6 8.0 0.00 0.00 0.00 62 1001.7
20260510062916 20 302 1.6 6.4 0.00 0.00 0.00 61 1001.8
20260510062409 20 323 1.6 6.4 0.00 0.00 0.00 61 1001.8
20260510062134 20 321 1.6 6.4 0.00 0.00 0.00 61 1001.8
20260510061357 20 319 1.6 6.4 0.00 0.00 0.00 61 1001.9
20260510060852 20 301 1.6 6.4 0.00 0.00 0.00 62 1002.0
20260510060848 20 256 1.6 4.8 0.00 0.00 0.00 62 1002.0
20260510055840 20 307 1.6 6.4 0.00 0.00 0.00 61 1002.0
20260510055333 20 300 1.6 6.4 0.00 0.00 0.00 61 1002.1
20260510054828 20 278 1.6 6.4 0.00 0.00 0.00 62 1002.0
20260510054322 20 58 1.6 6.4 0.00 0.00 0.00 62 1001.9
20260510053816 19 264 1.6 6.4 0.00 0.00 0.00 62 1001.9
20260510053310 20 259 1.6 6.4 0.00 0.00 0.00 62 1001.8
20260510052803 20 264 1.6 8.0 0.00 0.00 0.00 62 1001.7
20260510052258 20 341 1.6 8.0 0.00 0.00 0.00 62 1001.8
20260510051751 20 259 1.6 6.4 0.00 0.00 0.00 62 1001.7
20260510051246 20 259 1.6 6.4 0.00 0.00 0.00 62 1001.8
20260510051011 20 271 1.6 4.8 0.00 0.00 0.00 61 1001.7
20260510050234 20 293 1.6 4.8 0.00 0.00 0.00 61 1001.6
20260510045728 20 286 0.0 4.8 0.00 0.00 0.00 60 1001.6
20260510045229 20 285 1.6 4.8 0.00 0.00 0.00 60 1001.5
20260510045000 20 300 0.0 4.8 0.00 0.00 0.00 60 1001.4
20260510044228 20 309 0.0 4.8 0.00 0.00 0.00 60 1001.4
20260510043728 20 257 0.0 3.2 0.00 0.00 0.00 60 1001.4
20260510043228 20 256 0.0 1.6 0.00 0.00 0.00 59 1001.5
20260510042728 20 256 0.0 4.8 0.00 0.00 0.00 58 1001.5
20260510042228 20 256 0.0 4.8 0.00 0.00 0.00 58 1001.4
20260510041728 20 250 0.0 4.8 0.00 0.00 0.00 59 1001.3
20260510041225 20 250 0.0 3.2 0.00 0.00 0.00 58 1001.3
20260510040725 20 250 0.0 4.8 0.00 0.00 0.00 58 1001.2
20260510040224 20 250 0.0 4.8 0.00 0.00 0.00 57 1001.3
20260510035956 20 250 0.0 4.8 0.00 0.00 0.00 57 1001.3
20260510035225 20 248 0.0 6.4 0.00 0.00 0.00 57 1001.4
20260510034724 20 248 0.0 6.4 0.00 0.00 0.00 56 1001.3
20260510034224 20 248 0.0 4.8 0.00 0.00 0.00 57 1001.3
20260510033724 20 242 0.0 3.2 0.00 0.00 0.00 57 1001.2
20260510033224 20 242 0.0 3.2 0.00 0.00 0.00 58 1001.2
20260510032723 20 242 0.0 1.6 0.00 0.00 0.00 58 1001.1
20260510032222 20 242 0.0 1.6 0.00 0.00 0.00 57 1001.2
20260510031723 20 242 0.0 1.6 0.00 0.00 0.00 57 1001.1
20260510031223 20 240 0.0 0.0 0.00 0.00 0.00 57 1001.0
20260510030722 20 240 0.0 3.2 0.00 0.00 0.00 57 1000.9
20260510030220 20 240 0.0 3.2 0.00 0.00 0.00 55 1000.9
20260510025721 20 240 0.0 3.2 0.00 0.00 0.00 55 1001.0
20260510025220 20 240 0.0 3.2 0.00 0.00 0.00 56 1000.9
20260510024721 20 240 0.0 3.2 0.00 0.00 0.00 57 1000.9
20260510024220 21 240 0.0 1.6 0.00 0.00 0.00 54 1000.7
20260510023721 21 240 0.0 1.6 0.00 0.00 0.00 55 1000.6
20260510023451 21 240 0.0 1.6 0.00 0.00 0.00 55 1000.6
20260510022720 21 240 0.0 4.8 0.00 0.00 0.00 54 1000.5
20260510022220 21 240 0.0 4.8 0.00 0.00 0.00 56 1000.5
20260510021718 21 236 0.0 1.6 0.00 0.00 0.00 56 1000.4
20260510021449 21 236 0.0 3.2 0.00 0.00 0.00 57 1000.4
20260510020713 21 236 0.0 3.2 0.00 0.00 0.00 56 1000.3
20260510020206 21 236 0.0 0.0 0.00 0.00 0.00 58 1000.1
20260510015700 21 236 0.0 0.0 0.00 0.00 0.00 58 1000.0
20260510015154 21 236 0.0 0.0 0.00 0.00 0.00 58 1000.0
20260510014647 21 236 0.0 1.6 0.00 0.00 0.00 57 999.9
20260510014142 22 236 0.0 1.6 0.00 0.00 0.00 56 999.9
20260510013635 22 236 0.0 1.6 0.00 0.00 0.00 55 999.9
20260510013400 22 236 0.0 1.6 0.00 0.00 0.00 55 999.8
20260510012623 22 236 0.0 1.6 0.00 0.00 0.00 57 999.8
20260510012118 22 236 0.0 1.6 0.00 0.00 0.00 55 999.8
20260510011611 22 236 0.0 1.6 0.00 0.00 0.00 54 999.7
20260510011105 23 236 0.0 1.6 0.00 0.00 0.00 55 999.6
20260510010559 23 236 0.0 1.6 0.00 0.00 0.00 55 999.5
20260510010325 23 236 0.0 1.6 0.00 0.00 0.00 55 999.5
20260510005548 23 236 0.0 1.6 0.00 0.00 0.00 56 999.6
20260510005041 24 236 0.0 1.6 0.00 0.00 0.00 54 999.5
20260510004536 24 236 0.0 0.0 0.00 0.00 0.00 55 999.5
20260510004030 25 236 0.0 0.0 0.00 0.00 0.00 53 999.4
20260510003524 25 236 0.0 1.6 0.00 0.00 0.00 51 999.2
20260510003018 26 236 0.0 1.6 0.00 0.00 0.00 50 999.1
20260510002511 26 236 0.0 1.6 0.00 0.00 0.00 48 999.0
20260510002006 26 236 0.0 4.8 0.00 0.00 0.00 48 999.1
20260510001459 26 236 1.6 6.4 0.00 0.00 0.00 45 999.0
20260510000953 27 221 0.0 6.4 0.00 0.00 0.00 46 999.0
20260510000718 27 224 1.6 6.4 0.00 0.00 0.00 45 999.0
20260509235942 27 253 1.6 6.4 0.00 0.00 0.00 43 999.1
20260509235436 27 259 1.6 6.4 0.00 0.00 0.00 41 999.0
20260509234930 28 250 0.0 4.8 0.00 0.00 0.00 42 998.9
20260509234424 28 245 0.0 3.2 0.00 0.00 0.00 40 998.9
20260509233924 28 239 1.6 6.4 0.00 0.00 0.00 41 998.9
20260509233424 28 239 3.2 9.7 0.00 0.00 0.00 41 998.9
20260509233155 28 253 1.6 9.7 0.00 0.00 0.00 39 998.9
20260509232424 28 249 3.2 11.3 0.00 0.00 0.00 39 998.9
20260509231924 28 255 4.8 11.3 0.00 0.00 0.00 38 999.0
20260509231424 28 262 4.8 12.9 0.00 0.00 0.00 37 999.0
20260509230923 28 233 3.2 12.9 0.00 0.00 0.00 37 999.0
20260509230425 28 231 3.2 11.3 0.00 0.00 0.00 38 999.0
20260509225924 28 221 3.2 8.0 0.00 0.00 0.00 37 999.0
20260509225424 28 244 1.6 8.0 0.00 0.00 0.00 38 998.9
20260509224924 29 233 1.6 6.4 0.00 0.00 0.00 37 998.9
20260509224655 29 246 3.2 11.3 0.00 0.00 0.00 38 998.8
20260509224154 28 254 3.2 11.3 0.00 0.00 0.00 37 998.8
20260509223424 28 287 4.8 11.3 0.00 0.00 0.00 38 998.8
20260509222924 28 231 4.8 11.3 0.00 0.00 0.00 38 998.7
20260509222421 28 247 4.8 11.3 0.00 0.00 0.00 39 998.7
20260509221922 28 278 4.8 11.3 0.00 0.00 0.00 36 998.7
20260509221421 28 245 4.8 9.7 0.00 0.00 0.00 36 998.7
20260509220922 29 274 3.2 12.9 0.00 0.00 0.00 36 998.8
20260509220422 28 345 3.2 12.9 0.00 0.00 0.00 40 998.6
20260509215921 29 228 3.2 9.7 0.00 0.00 0.00 38 998.6
20260509215422 28 317 3.2 9.7 0.00 0.00 0.00 38 998.7
20260509214921 28 139 3.2 14.5 0.00 0.00 0.00 36 998.6
20260509214650 28 200 3.2 14.5 0.00 0.00 0.00 37 998.7
20260509213919 28 234 4.8 11.3 0.00 0.00 0.00 38 998.8
20260509213420 28 231 4.8 11.3 0.00 0.00 0.00 40 998.8
20260509212919 28 232 3.2 11.3 0.00 0.00 0.00 37 998.8
20260509212651 29 279 3.2 12.9 0.00 0.00 0.00 36 998.9
20260509211919 29 277 3.2 12.9 0.00 0.00 0.00 36 998.9
20260509211420 29 263 3.2 9.7 0.00 0.00 0.00 36 998.9
20260509210918 30 226 3.2 9.7 0.00 0.00 0.00 37 999.1
20260509210418 30 359 3.2 16.1 0.00 0.00 0.00 37 999.1
20260509205918 30 354 1.6 16.1 0.00 0.00 0.00 36 999.1
20260509205417 30 222 3.2 11.3 0.00 0.00 0.00 37 999.1
20260509205148 30 19 3.2 11.3 0.00 0.00 0.00 34 999.2
20260509204417 31 352 1.6 11.3 0.00 0.00 0.00 34 999.1
20260509203916 30 282 1.6 8.0 0.00 0.00 0.00 37 999.2
20260509203415 29 243 1.6 6.4 0.00 0.00 0.00 44 999.2
20260509202916 29 86 0.0 3.2 0.00 0.00 0.00 36 999.3
20260509202415 30 147 1.6 6.4 0.00 0.00 0.00 36 999.3
20260509202146 30 19 3.2 8.0 0.00 0.00 0.00 34 999.3
20260509201415 30 251 1.6 8.0 0.00 0.00 0.00 36 999.3
20260509200916 28 293 1.6 8.0 0.00 0.00 0.00 40 999.4
20260509200416 27 236 3.2 8.0 0.00 0.00 0.00 39 999.4
20260509195915 27 155 4.8 9.7 0.00 0.00 0.00 39 999.5
20260509195416 27 151 4.8 11.3 0.00 0.00 0.00 42 999.6
20260509194915 28 213 4.8 12.9 0.00 0.00 0.00 41 999.5
20260509194416 28 219 4.8 14.5 0.00 0.00 0.00 42 999.6
20260509193916 28 139 4.8 14.5 0.00 0.00 0.00 41 999.6
20260509193415 28 238 4.8 11.3 0.00 0.00 0.00 42 999.7
20260509192923 28 246 3.2 11.3 0.00 0.00 0.00 45 999.8
20260509192916 28 277 4.8 11.3 0.00 0.00 0.00 48 999.7
20260509192416 28 181 3.2 9.7 0.00 0.00 0.00 44 999.7
20260509191416 28 268 3.2 11.3 0.00 0.00 0.00 47 999.8
20260509191147 28 69 3.2 8.0 0.00 0.00 0.00 49 999.8